Home   Weather   Copenhagen   Past weeks

Flag for Denmark Past Weather in Copenhagen, Denmark — Yesterday and Last 2 Weeks

46 °F

Partly cloudy.

Feels Like: 42 °F
Forecast: 44 / 51 °F
Wind: 8 mph from East

Location: Koebenhavn-Kastrup Airport

Current Time: Oct 24, 2016 at 12:03:30 AM

Latest Report: Oct 23, 2016 at 11:20 PM

Visibility: N/A

Pressure: 30.09 "Hg

Humidity: 87%

Dew Point: 43 °F

Location of CopenhagenLocation

Past Weather in Copenhagen — Graph


Copenhagen Temperature Yesterday

Maximum temperature yesterday: 48 °F (at 2:35 PM)
Minimum temperature yesterday: 43 °F (at 2:50 AM)
Average temperature yesterday: 45 °F

High & Low Weather Summary for the Past Weeks

High54 °F (Oct 20, 1:20 PM)100% (Oct 18, 4:20 AM)30.39 "Hg (Oct 18, 4:20 AM)
Low41 °F (Oct 22, 8:50 AM)62% (Oct 14, 12:50 PM)29.92 "Hg (Oct 19, 9:50 PM)
Average48 °F85%30.17 "Hg
* Reported Oct 8 10:21 PM — Oct 23 10:50 PM, Copenhagen, Weather by CustomWeather, © 2016

Note: Actual official high and low records may vary slightly from our data, if they occured in-between our weather recording intervals... More about our weather records


Copenhagen Weather History for the Previous 24 Hours

Scroll right to see more
Time TempWeatherWind HumidityBarometerVisibility
10:50 PM
Sun, Oct 23
46 °FSprinkles. Passing clouds.9 mph87%30.09 "HgN/A
10:20 PM46 °FSprinkles. Partly cloudy.8 mph82%30.09 "HgN/A
9:50 PM45 °FSprinkles. Partly cloudy.8 mph93%30.09 "HgN/A
9:20 PM46 °FPartly cloudy.3 mph76%30.09 "HgN/A
8:50 PM46 °FSprinkles. Partly cloudy.6 mph82%30.09 "HgN/A
8:20 PM46 °FPassing clouds.14 mph82%30.09 "HgN/A
7:50 PM46 °FPassing clouds.7 mph87%30.07 "HgN/A
7:20 PM46 °FPassing clouds.6 mph82%30.07 "HgN/A
6:50 PM48 °FPassing clouds.6 mph76%30.07 "HgN/A
6:20 PM46 °FPartly cloudy.7 mph82%30.07 "HgN/A
5:50 PM46 °FSprinkles. Partly cloudy.10 mph76%30.07 "HgN/A
5:20 PM48 °FBroken clouds.12 mph82%30.07 "HgN/A
4:50 PM48 °FBroken clouds.7 mph76%30.04 "HgN/A
4:20 PM48 °FBroken clouds.9 mph82%30.04 "HgN/A
3:50 PM48 °FSprinkles. Broken clouds.6 mph76%30.04 "HgN/A
3:20 PM46 °FSprinkles. Broken clouds.12 mph87%30.04 "HgN/A
2:50 PM48 °FBroken clouds.12 mph87%30.04 "HgN/A
2:35 PM48 °FBroken clouds.8 mph87%30.04 "HgN/A
1:50 PM46 °FSprinkles. Partly sunny.5 mph93%30.04 "Hg5 mi
1:20 PM46 °FBroken clouds.5 mph87%30.04 "HgN/A
12:50 PM46 °FBroken clouds.5 mph93%30.04 "HgN/A
12:20 PM46 °FBroken clouds.6 mph93%30.04 "HgN/A
11:50 AM45 °FPartly sunny.6 mph93%30.04 "HgN/A
11:20 AM45 °FPartly sunny.7 mph93%30.04 "HgN/A
10:50 AM45 °FLight rain. Partly sunny.6 mph87%30.04 "HgN/A
10:20 AM45 °FLight rain. Partly sunny.7 mph87%30.04 "HgN/A
9:50 AM43 °FPartly sunny.7 mph93%30.01 "HgN/A
9:20 AM43 °FPartly sunny.6 mph93%30.01 "HgN/A
8:50 AM43 °FPartly sunny.7 mph93%30.01 "HgN/A
8:20 AM43 °FPartly sunny.6 mph93%30.01 "HgN/A
7:50 AM43 °FPassing clouds.7 mph93%30.01 "HgN/A
7:20 AM43 °FPassing clouds.8 mph87%30.01 "HgN/A
6:50 AM43 °FPassing clouds.9 mph87%30.01 "HgN/A
6:20 AM43 °FPassing clouds.9 mph87%29.98 "HgN/A
5:50 AM43 °FPassing clouds.8 mph87%30.01 "HgN/A
5:20 AM43 °FPassing clouds.8 mph93%30.01 "HgN/A
4:50 AM43 °FPassing clouds.10 mph93%29.98 "HgN/A
4:20 AM43 °FPassing clouds.12 mph93%29.98 "HgN/A
3:50 AM43 °FPartly cloudy.12 mph93%29.98 "HgN/A
3:20 AM43 °FPassing clouds.13 mph93%29.98 "HgN/A
2:50 AM43 °FPassing clouds.14 mph93%29.98 "HgN/A
2:20 AM45 °FPassing clouds.13 mph87%29.98 "HgN/A
1:50 AM45 °FPassing clouds.16 mph87%29.98 "HgN/A
1:20 AM45 °FSprinkles. Partly cloudy.15 mph87%29.98 "HgN/A
12:50 AM45 °FSprinkles. Partly cloudy.15 mph93%29.98 "HgN/A
12:20 AM46 °FPartly cloudy.17 mph87%29.98 "HgN/A
Weather by CustomWeather, © 2016

See weather overviewHow to use our weather pages